OPS 4682 DEB, 18784

Orbit data source: Space-Track

OPS 4682 DEB, 18784 is space debris in LEO originally from a launch on Sat, 03 Apr 1965 UTC launched from the Air Force Western Test Range (AFWTR). Debris objects in space refer to the collection of defunct objects orbiting the Earth. Examples of debris include non-operational satellites, rocket bodies, and fragments generated from explosions, collisions, or faulty payload assembly.

Loading next visibility...
Identifier
18784, 1965-027AL
Orbit
LEO
Country
Flag of USUS
Related business
Manufacturer
Unknown
Mission
Spacecraft
Bus & Motor
Unknown
Mass
Unknown
Launch date (UTC)
1965-04-03 (61 years ago)
Launch vehicle
Unknown
Launch site
Air Force Western Test Range (AFWTR)
Object type
Payload
Rocket body
Debris
Shape & HBR
Unknown shape, 0.1 m
Radar Cross Section
Small (<0.1 m²)

Expand to show TLE details & history
Last TLE update: 3 days ago

TLE from 3 days ago
0 OPS 4682 DEB
1 18784U 65027AL  25300.61451991 -.00000228  00000-0 -81341-3 0  9998
2 18784  90.2506 359.0563 0039171  11.2299 146.5640 12.96985567772233
Epoch: 2025-10-27T14:44Z
TLE epoch observation values (Epoch: 2025-10-27T14:44:54.520Z)
Latitude
21.97013°
Longitude
-78.28411°
Altitude
1,301.644 km
Speed
7.196 km/s
True Right ascension
11h 56m 37s
True Declination
21° 51' 34"
Sunlit
Object was in daylight at epoch
Visualization orbit readout
Latitude
Unknown
Longitude
Unknown
Altitude
Unknown
Speed
Unknown
Apparent Right ascension
Unknown
Apparent Declination
Unknown
Sunlit
N/A
Visualization observer readout
Local Sidereal Time
22:41:48
Azimuth
Unknown
Elevation
Unknown
Doppler factor
Unknown
Orbital elements
Apogee altitude
1,301.014 km
Perigee altitude
1,241.089 km
Semi-major axis
7,649.189 km
Eccentricity
0.00392
Inclination
90.2506°
RAAN
359.0563°
Arg. of periapsis
11.2299°
True anomaly
146.81032°
Mean anomaly
146.564°
Eccentric anomaly
146.68726°
Mean motion
3.24429 °/min
Orbital period
110.96 mins
BSTAR
-0.00081341
Loading maneuver chart data...
Computing Atmospheric mass density...
Loading historical data...
Loading historical data...
Loading historical data...
Loading historical data...
Loading historical data...
Loading historical data...
Loading historical data...

Documentation

Showing up to 5 results
|